Weather History for Guernsey, United Kingdom

Change the Weather History Date:

Friday, November 2, 2012

  Actual Average Record
Temperature  
Mean Temperature 47 °F -  
Max Temperature 52 °F 51 °F 60 °F (2002)
Min Temperature 42 °F 46 °F 42 °F (2012)
Degree Days  
Heating Degree Days 18    
Moisture  
Dew Point 41 °F    
Average Humidity 75    
Maximum Humidity 93    
Minimum Humidity 59    
Precipitation  
Precipitation 0.04 in - - ()
Sea Level Pressure  
Sea Level Pressure 29.37 in    
Wind  
Wind Speed 18 mph ()    
Max Wind Speed 26 mph    
Max Gust Speed 37 mph    
Visibility 6.9 miles    
Events Rain , Hail , Thunderstorm    
Averages and records for this station are not official NWS values.
T = Trace of Precipitation, MM = Missing Value Source: Averaged Metar Reports

Daily Weather History Graph

Daily Weather History Graph

Search for Another Location

Airport:

Trip Planner

Search our weather history database for the weather conditions in past years. The results will help you decide how hot, cold, wet, or windy it might be!

Date:

Astronomy

Nov. 02, 2012 Rise Set
Actual Time 7:00 AM GMT 4:46 PM GMT
Civil Twilight 6:27 AM GMT 5:20 PM GMT
Nautical Twilight 5:49 AM GMT 5:57 PM GMT
Astronomical Twilight 5:12 AM GMT 6:34 PM GMT
Moon 7:09 PM GMT (11/2) 10:22 AM GMT (11/2)
Length of Visible Light 10h 52m
Length of Day
9h 45m
Waning Gibbous, 88% of the Moon is Illuminated
Nov 2
Waning Gibbous
Nov 7
Last Quarter
Nov 13
New
Nov 20
First Quarter
Nov 28
Full

Hourly Weather History & Observations

Time (GMT) Temp. Windchill Dew Point Humidity Pressure Visibility Wind Dir Wind Speed Gust Speed Precip Events Conditions
12:00 AM 47 °F - 40 °F 70% 29.31 in 19 mi WSW 20.7 mph - - Rain Light Rain Showers
3:00 AM 45 °F - 40 °F 75% 29.34 in 12 mi WSW 19.6 mph - - Hail Light Hail Showers
3:50 AM 46.4 °F 38.3 °F 39.2 °F 76% 29.33 in 6.2 mi SW 23.0 mph - N/A   Partly Cloudy
4:20 AM 48.2 °F - 42.8 °F 82% 29.30 in 6.2 mi SW 20.7 mph - N/A   Partly Cloudy
4:50 AM 48.2 °F - 41.0 °F 76% 29.33 in 6.2 mi SW 18.4 mph - N/A   Scattered Clouds
5:20 AM 42.8 °F 33.8 °F 41.0 °F 93% 29.33 in 3.1 mi WSW 21.9 mph - N/A Rain , Thunderstorm Thunderstorms and Rain
5:50 AM 44.6 °F 37.4 °F 41.0 °F 87% 29.33 in 6.2 mi SW 16.1 mph - N/A   Partly Cloudy
6:00 AM 44 °F - 41 °F 86% 29.34 in 16 mi SW 16.1 mph - - Thunderstorm Light Thunderstorm
6:20 AM 44.6 °F 38.8 °F 42.8 °F 93% 29.30 in 6.2 mi SSW 11.5 mph - N/A   Partly Cloudy
6:50 AM 48.2 °F - 42.8 °F 82% 29.30 in 6.2 mi SW 15.0 mph - N/A   Partly Cloudy
7:20 AM 46.4 °F 39.5 °F 42.8 °F 87% 29.30 in 6.2 mi SSW 17.3 mph - N/A   Scattered Clouds
7:50 AM 48.2 °F - 44.6 °F 87% 29.33 in 6.2 mi SSW 16.1 mph - N/A Rain Light Rain Showers
8:20 AM 48.2 °F - 41.0 °F 76% 29.33 in 6.2 mi SW 15.0 mph - N/A Rain Light Rain Showers
8:50 AM 48.2 °F - 41.0 °F 76% 29.33 in 6.2 mi WSW 18.4 mph - N/A   Partly Cloudy
9:00 AM 48 °F - 41 °F 70% 29.34 in 22 mi WSW 18.4 mph - - Rain Light Rain Showers
9:20 AM 48.2 °F - 42.8 °F 82% 29.33 in 6.2 mi WSW 15.0 mph - N/A Rain Light Rain Showers
9:50 AM 44.6 °F 37.2 °F 42.8 °F 93% 29.33 in 6.2 mi West 17.3 mph - N/A Rain Light Rain Showers
10:20 AM 48.2 °F - 44.6 °F 87% 29.33 in 6.2 mi West 15.0 mph - N/A Rain Light Rain Showers
10:50 AM 50.0 °F - 42.8 °F 76% 29.33 in 6.2 mi West 18.4 mph - N/A   Scattered Clouds
11:20 AM 51.8 °F - 42.8 °F 71% 29.36 in 6.2 mi West 20.7 mph - N/A   Mostly Cloudy
11:50 AM 50.0 °F - 42.8 °F 76% 29.36 in 6.2 mi West 24.2 mph - N/A   Scattered Clouds
12:00 PM 50 °F - 42 °F 66% 29.37 in 25 mi West 24.2 mph - - Hail Light Hail Showers
12:20 PM 51.8 °F - 42.8 °F 71% 29.36 in 6.2 mi West 25.3 mph - N/A   Scattered Clouds
12:50 PM 51.8 °F - 41.0 °F 67% 29.36 in 6.2 mi WSW 21.9 mph - N/A   Partly Cloudy
1:20 PM 51.8 °F - 41.0 °F 67% 29.39 in 6.2 mi West 25.3 mph - N/A   Partly Cloudy
1:50 PM 51.8 °F - 41.0 °F 67% 29.39 in 6.2 mi WSW 24.2 mph - N/A   Partly Cloudy
2:20 PM 51.8 °F - 42.8 °F 71% 29.39 in 6.2 mi WSW 23.0 mph - N/A   Partly Cloudy
2:50 PM 50.0 °F - 41.0 °F 71% 29.39 in 6.2 mi West 23.0 mph - N/A   Partly Cloudy
3:00 PM 51 °F - 41 °F 59% 29.40 in 25 mi West 23.0 mph - -   Partly Cloudy
3:20 PM 50.0 °F - 41.0 °F 71% 29.39 in 6.2 mi WSW 24.2 mph 36.8 mph N/A   Partly Cloudy
3:50 PM 50.0 °F - 41.0 °F 71% 29.42 in 6.2 mi WSW 24.2 mph - N/A   Partly Cloudy
4:20 PM 50.0 °F - 41.0 °F 71% 29.42 in 6.2 mi WSW 24.2 mph - N/A   Scattered Clouds
4:50 PM 48.2 °F - 41.0 °F 76% 29.42 in 6.2 mi West 26.5 mph - N/A Rain Light Rain Showers
5:20 PM 48.2 °F - 41.0 °F 76% 29.42 in 6.2 mi WSW 16.1 mph - N/A   Partly Cloudy
5:50 PM 50.0 °F - 41.0 °F 71% 29.44 in 6.2 mi WSW 21.9 mph - N/A   Partly Cloudy
6:00 PM 50 °F - 41 °F 62% 29.45 in 22 mi WSW 21.9 mph - - Rain Light Rain Showers
6:20 PM 50.0 °F - 39.2 °F 66% 29.44 in 6.2 mi WSW 21.9 mph - N/A   Partly Cloudy
6:50 PM 50.0 °F - 41.0 °F 71% 29.44 in 6.2 mi WSW 19.6 mph - N/A   Partly Cloudy
7:20 PM 50.0 °F - 41.0 °F 71% 29.44 in 6.2 mi WSW 18.4 mph - N/A   Partly Cloudy
7:50 PM 50.0 °F - 41.0 °F 71% 29.44 in 6.2 mi SW 16.1 mph - N/A   Partly Cloudy
8:20 PM 50.0 °F - 41.0 °F 71% 29.44 in 6.2 mi SW 17.3 mph - N/A   Partly Cloudy
8:50 PM 50.0 °F - 39.2 °F 66% 29.44 in 6.2 mi WSW 18.4 mph - N/A   Partly Cloudy
9:00 PM 50 °F - 40 °F 59% 29.48 in 25 mi WSW 18.4 mph - -   Scattered Clouds